Weather History for KCMX - March, 2014

Change the Weather History Date:

Thursday, March 20, 2014

  Actual Average Record
Temperature  
Mean Temperature 24 °F -  
Max Temperature 32 °F 33 °F 73 °F (2012)
Min Temperature 17 °F 20 °F -8 °F (1965)
Degree Days  
Heating Degree Days 42    
Moisture  
Dew Point 19 °F    
Average Humidity 74    
Maximum Humidity 88    
Minimum Humidity 56    
Precipitation  
Precipitation 0.00 in - - ()
Sea Level Pressure  
Sea Level Pressure 29.94 in    
Wind  
Wind Speed 10 mph (NW)    
Max Wind Speed 14 mph    
Max Gust Speed -    
Visibility 10 miles    
Events      
Averages and records for this station are not official NWS values.
T = Trace of Precipitation, MM = Missing Value Source: NWS Daily Summary

Daily Weather History Graph

Daily Weather History Graph

Search for Another Location

Airport or City:

Trip Planner

Search our weather history database for the weather conditions in past years. The results will help you decide how hot, cold, wet, or windy it might be!

Date:

Astronomy

Mar. 20, 2014 Rise Set
Actual Time 7:56 AM EDT 8:06 PM EDT
Civil Twilight 7:26 AM EDT 8:37 PM EDT
Nautical Twilight 6:50 AM EDT 9:13 PM EDT
Astronomical Twilight 6:13 AM EDT 9:50 PM EDT
Moon No Moon Rise 9:47 AM EDT (3/20)
Length of Visible Light 13h 10m
Length of Day
12h 09m
Waning Gibbous, 84% of the Moon is Illuminated
Mar 20
Waning Gibbous
Mar 23
Last Quarter
Mar 30
New
Apr 7
First Quarter
Apr 15
Full

Hourly Weather History & Observations

Time (EDT) Temp. Windchill Dew Point Humidity Pressure Visibility Wind Dir Wind Speed Gust Speed Precip Events Conditions
12:53 AM 28.0 °F 17.5 °F 23.0 °F 81% 29.84 in 10.0 mi NW 12.7 mph - N/A   Overcast
1:53 AM 27.0 °F 15.6 °F 21.9 °F 81% 29.85 in 10.0 mi NW 13.8 mph - N/A   Overcast
2:53 AM 27.0 °F 16.1 °F 21.0 °F 78% 29.86 in 10.0 mi NW 12.7 mph - N/A   Overcast
3:53 AM 26.1 °F 15.0 °F 21.0 °F 81% 29.86 in 10.0 mi NW 12.7 mph - N/A   Overcast
4:53 AM 26.1 °F 16.2 °F 21.0 °F 81% 29.87 in 10.0 mi NNW 10.4 mph - N/A   Overcast
5:53 AM 24.1 °F 14.4 °F 19.9 °F 84% 29.89 in 10.0 mi NW 9.2 mph - N/A   Overcast
6:36 AM 24.8 °F 16.9 °F 19.4 °F 80% 29.85 in 10.0 mi NW 6.9 mph - N/A   Overcast
6:53 AM 23.0 °F 13.1 °F 19.9 °F 88% 29.91 in 10.0 mi NW 9.2 mph - N/A   Overcast
7:53 AM 25.0 °F 15.5 °F 19.9 °F 81% 29.92 in 10.0 mi NW 9.2 mph - N/A   Overcast
8:53 AM 25.0 °F 17.1 °F 19.9 °F 81% 29.94 in 10.0 mi NW 6.9 mph - N/A   Overcast
9:53 AM 27.0 °F 16.1 °F 19.9 °F 75% 29.95 in 10.0 mi NW 12.7 mph - N/A   Overcast
10:53 AM 28.0 °F 17.5 °F 19.9 °F 72% 29.97 in 10.0 mi NW 12.7 mph - N/A   Mostly Cloudy
11:53 AM 28.9 °F 20.4 °F 21.0 °F 72% 29.97 in 10.0 mi NNW 9.2 mph - N/A   Partly Cloudy
12:53 PM 30.0 °F 24.1 °F 21.0 °F 69% 29.97 in 10.0 mi NW 5.8 mph - N/A   Partly Cloudy
1:53 PM 30.9 °F 23.5 °F 21.0 °F 67% 29.98 in 10.0 mi NW 8.1 mph - N/A   Scattered Clouds
2:53 PM 30.9 °F 20.7 °F 19.0 °F 61% 29.96 in 10.0 mi NW 13.8 mph - N/A   Scattered Clouds
3:53 PM 30.9 °F 21.2 °F 18.0 °F 59% 29.96 in 10.0 mi WNW 12.7 mph - N/A   Mostly Cloudy
4:53 PM 30.0 °F 20.5 °F 19.0 °F 64% 29.97 in 10.0 mi WNW 11.5 mph - N/A   Overcast
5:53 PM 30.0 °F 20.0 °F 16.0 °F 56% 29.98 in 10.0 mi WNW 12.7 mph - N/A   Overcast
6:53 PM 30.0 °F 22.4 °F 16.0 °F 56% 29.99 in 10.0 mi West 8.1 mph - N/A   Overcast
7:53 PM 26.1 °F 20.5 °F 15.1 °F 63% 29.98 in 10.0 mi WNW 4.6 mph - N/A   Clear
8:53 PM 23.0 °F 18.4 °F 14.0 °F 68% 29.99 in 10.0 mi NW 3.5 mph - N/A   Clear
9:53 PM 18.0 °F - 12.0 °F 78% 30.00 in 10.0 mi Calm Calm - N/A   Clear
10:53 PM 17.1 °F - 12.0 °F 81% 30.00 in 10.0 mi Calm Calm - N/A   Clear
11:53 PM 18.0 °F - 14.0 °F 84% 30.00 in 10.0 mi Calm Calm - N/A   Clear